Torna al catalogo

STARLINK-32779

AttivoComunicazioniVLEO
NORAD 63030·PAYLOAD·🇺🇸 United States

Lanciato Feb 18, 2025 da Cape Canaveral Space Force Station

Loading…

Prossimi Passaggi (prossime 24 ore)

TLE

AggiornatoSource: CelesTrak SupGP

Epoca: Sep 15, 2026, 02:25 UTC

1 63030C 25034B   26258.10118056  .00026184  00000+0  77365-3 0  2580
2 63030  53.1572 108.6321 0001245  82.0108 203.8302 15.34376078    12

Traccia STARLINK-32779 in tempo reale con AllMySat

Download on the App Store